Home   Weather   Naples   Past weeks

Flag for Italy Past Weather in Naples, Italy — Yesterday and Last 2 Weeks

Now
50 °F

Clear.


Feels Like: 49 °F
Forecast: 61 / 69 °F
Wind: 3 mph from North

Location: Naples / Capodichino

Current Time: Apr 26, 2017 at 6:37:06 am

Latest Report: Apr 26, 2017 at 5:50 am


Visibility: 10 mi

Pressure: 29.95 "Hg

Humidity: 71%

Dew Point: 41 °F

Location of NaplesLocation

Past Weather in Naples — Graph

°F

Naples Temperature Yesterday

Maximum temperature yesterday: 66 °F (at 11:20 am)
Minimum temperature yesterday: 46 °F (at 4:20 am)
Average temperature yesterday: 58 °F

High & Low Weather Summary for the Past Weeks

 TemperatureHumidityPressure
High70 °F (Apr 12, 2:20 pm)94% (Apr 12, 2:20 am)30.30 "Hg (Apr 12, 2:20 am)
Low41 °F (Apr 20, 4:50 am)22% (Apr 22, 1:20 pm)29.74 "Hg (Apr 18, 6:50 pm)
Average58 °F68%30.03 "Hg
* Reported Apr 11 5:20 am — Apr 26 5:20 am, Naples, Weather by CustomWeather, © 2017

Note: Actual official high and low records may vary slightly from our data, if they occured in-between our weather recording intervals... More about our weather records

Advertising

Naples Weather History for the Previous 24 Hours

Scroll right to see more
 ConditionsComfort  
Time TempWeatherWind HumidityBarometerVisibility
5:20 am
Wed, Apr 26
50 °FClear.2 mph76%29.95 "Hg10 mi
4:50 am52 °FClear.5 mph77%29.95 "Hg10 mi
4:20 am52 °FClear.3 mph77%29.98 "Hg10 mi
3:50 am52 °FClear.2 mph77%29.98 "Hg10 mi
2:50 am50 °FPassing clouds.3 mph82%29.98 "HgN/A
2:20 am54 °FClear.2 mph82%29.98 "Hg10 mi
1:50 am54 °FClear.2 mph72%30.01 "Hg10 mi
1:20 am55 °FClear.2 mph72%30.01 "Hg10 mi
12:50 am55 °FClear.2 mph77%30.01 "Hg10 mi
12:20 am57 °FClear.5 mph77%30.01 "Hg10 mi
11:50 pm
Tue, Apr 25
57 °FClear.3 mph72%30.01 "Hg10 mi
11:20 pm57 °FClear.2 mph77%30.01 "Hg10 mi
10:50 pm57 °FClear.5 mph82%30.01 "Hg10 mi
10:20 pm59 °FClear.No wind77%30.01 "Hg10 mi
9:50 pm59 °FClear.1 mph77%30.01 "Hg10 mi
8:50 pm61 °FPassing clouds.3 mph77%30.01 "HgN/A
8:20 pm61 °FPassing clouds.5 mph77%29.98 "HgN/A
7:50 pm61 °FPassing clouds.5 mph72%29.98 "HgN/A
7:20 pm63 °FPassing clouds.6 mph73%29.98 "HgN/A
6:50 pm63 °FPassing clouds.7 mph73%29.98 "HgN/A
6:20 pm64 °FPassing clouds.6 mph68%30.01 "HgN/A
5:50 pm64 °FPassing clouds.8 mph68%30.01 "HgN/A
5:20 pm64 °FPassing clouds.8 mph64%30.01 "HgN/A
4:50 pm66 °FPassing clouds.9 mph49%30.01 "HgN/A
4:20 pm66 °FPassing clouds.10 mph40%30.01 "HgN/A
3:50 pm66 °FPassing clouds.12 mph52%30.01 "HgN/A
3:20 pm64 °FPassing clouds.13 mph64%30.04 "HgN/A
2:50 pm64 °FPassing clouds.12 mph60%30.04 "HgN/A
2:20 pm64 °FPassing clouds.12 mph56%30.07 "HgN/A
1:50 pm64 °FPassing clouds.12 mph56%30.07 "HgN/A
1:20 pm64 °FPassing clouds.10 mph40%30.07 "HgN/A
12:50 pm66 °FPassing clouds.9 mph37%30.07 "HgN/A
12:20 pm66 °FPassing clouds.9 mph26%30.07 "HgN/A
11:50 am66 °FPassing clouds.8 mph26%30.07 "HgN/A
11:20 am66 °FPassing clouds.7 mph35%30.07 "HgN/A
10:20 am64 °FPassing clouds.7 mph34%30.07 "HgN/A
9:50 am63 °FSunny.2 mph49%30.07 "Hg10 mi
9:20 am61 °FSunny.2 mph63%30.07 "Hg10 mi
8:50 am59 °FSunny.2 mph68%30.07 "Hg10 mi
8:20 am57 °FSunny.2 mph67%30.07 "Hg10 mi
7:50 am54 °FSunny.2 mph72%30.07 "Hg10 mi
7:20 am52 °FSunny.2 mph67%30.07 "Hg10 mi
6:50 am50 °FSunny.No wind82%30.07 "Hg10 mi
6:20 am46 °FSunny.2 mph82%30.07 "Hg10 mi
Weather by CustomWeather, © 2017

See weather overviewHow to use our weather pages